| time (UTC) | temp C | wind direction | speed KPH | gust KPH | rain 1hr cm | rain 24hr cm | rain mn cm | humidity % | barometer mb |
| 20260508104759 | 6 | 128 | 0.0 | 0.0 | 0.00 | 0.00 | 0.00 | 80 | 1004.6 |
| 20260508104255 | 5 | 112 | 1.6 | 1.6 | 0.00 | 0.00 | 0.00 | 81 | 1004.2 |
| 20260508103753 | 5 | 128 | 0.0 | 0.0 | 0.00 | 0.00 | 0.00 | 80 | 1004.2 |
| 20260508103249 | 5 | 55 | 1.6 | 1.6 | 0.00 | 0.00 | 0.00 | 80 | 1004.5 |
| 20260508102747 | 5 | 158 | 0.0 | 0.0 | 0.00 | 0.00 | 0.00 | 80 | 1004.0 |
| 20260508102245 | 5 | 126 | 0.0 | 0.0 | 0.00 | 0.00 | 0.00 | 80 | 1003.9 |
| 20260508101742 | 5 | 165 | 0.0 | 0.0 | 0.00 | 0.00 | 0.00 | 79 | 1003.5 |
| 20260508101239 | 6 | 169 | 0.0 | 0.0 | 0.00 | 0.00 | 0.00 | 79 | 1003.6 |
| 20260508100737 | 6 | 181 | 1.6 | 1.6 | 0.00 | 0.00 | 0.00 | 79 | 1003.7 |
| 20260508100235 | 6 | 172 | 0.0 | 0.0 | 0.00 | 0.00 | 0.00 | 79 | 1003.6 |
| 20260508095730 | 6 | 176 | 1.6 | 1.6 | 0.00 | 0.00 | 0.00 | 78 | 1003.5 |
| 20260508095229 | 6 | 159 | 0.0 | 0.0 | 0.00 | 0.00 | 0.00 | 78 | 1003.5 |
| 20260508094725 | 6 | 162 | 0.0 | 0.0 | 0.00 | 0.00 | 0.00 | 78 | 1003.6 |
| 20260508094222 | 6 | 160 | 0.0 | 0.0 | 0.00 | 0.00 | 0.00 | 78 | 1003.5 |
| 20260508093719 | 6 | 160 | 0.0 | 0.0 | 0.00 | 0.00 | 0.00 | 77 | 1003.6 |
| 20260508093217 | 6 | 143 | 0.0 | 0.0 | 0.00 | 0.00 | 0.00 | 78 | 1003.9 |
| 20260508092713 | 6 | 166 | 0.0 | 1.6 | 0.00 | 0.00 | 0.00 | 77 | 1004.0 |
| 20260508092212 | 7 | 166 | 0.0 | 1.6 | 0.00 | 0.00 | 0.00 | 77 | 1003.7 |
| 20260508091709 | 7 | 166 | 0.0 | 0.0 | 0.00 | 0.00 | 0.00 | 77 | 1004.0 |
| 20260508091206 | 7 | 160 | 0.0 | 0.0 | 0.00 | 0.00 | 0.00 | 77 | 1004.0 |
| 20260508090704 | 7 | 166 | 0.0 | 0.0 | 0.00 | 0.00 | 0.00 | 76 | 1004.0 |
| 20260508090201 | 7 | 101 | 1.6 | 1.6 | 0.00 | 0.00 | 0.00 | 77 | 1003.9 |
| 20260508085657 | 7 | 143 | 0.0 | 0.0 | 0.00 | 0.00 | 0.00 | 76 | 1003.9 |
| 20260508085155 | 7 | 126 | 0.0 | 0.0 | 0.00 | 0.00 | 0.00 | 76 | 1004.2 |
| 20260508084651 | 7 | 156 | 0.0 | 0.0 | 0.00 | 0.00 | 0.00 | 75 | 1003.9 |
| 20260508084148 | 7 | 157 | 0.0 | 0.0 | 0.00 | 0.00 | 0.00 | 75 | 1004.0 |
| 20260508083645 | 7 | 157 | 0.0 | 0.0 | 0.00 | 0.00 | 0.00 | 74 | 1004.3 |
| 20260508083143 | 7 | 166 | 0.0 | 1.6 | 0.00 | 0.00 | 0.00 | 74 | 1004.1 |
| 20260508082638 | 7 | 164 | 0.0 | 0.0 | 0.00 | 0.00 | 0.00 | 73 | 1004.5 |
| 20260508082135 | 7 | 156 | 0.0 | 0.0 | 0.00 | 0.00 | 0.00 | 73 | 1004.1 |
| 20260508081633 | 8 | 157 | 1.6 | 1.6 | 0.00 | 0.00 | 0.00 | 72 | 1004.3 |
| 20260508081129 | 8 | 136 | 0.0 | 0.0 | 0.00 | 0.00 | 0.00 | 72 | 1004.3 |
| 20260508080627 | 8 | 119 | 0.0 | 0.0 | 0.00 | 0.00 | 0.00 | 72 | 1004.5 |
| 20260508080125 | 8 | 126 | 0.0 | 0.0 | 0.00 | 0.00 | 0.00 | 72 | 1004.6 |
| 20260508075620 | 8 | 85 | 1.6 | 1.6 | 0.00 | 0.00 | 0.00 | 71 | 1004.7 |
| 20260508075118 | 8 | 103 | 0.0 | 1.6 | 0.00 | 0.00 | 0.00 | 71 | 1004.6 |
| 20260508074616 | 8 | 355 | 0.0 | 0.0 | 0.00 | 0.00 | 0.00 | 71 | 1004.5 |
| 20260508074112 | 8 | 149 | 0.0 | 0.0 | 0.00 | 0.00 | 0.00 | 70 | 1004.6 |
| 20260508073610 | 8 | 226 | 3.2 | 3.2 | 0.00 | 0.00 | 0.00 | 69 | 1004.6 |
| 20260508073107 | 9 | 170 | 0.0 | 0.0 | 0.00 | 0.00 | 0.00 | 69 | 1004.5 |
| 20260508072602 | 9 | 153 | 1.6 | 1.6 | 0.00 | 0.00 | 0.00 | 68 | 1004.2 |
| 20260508072100 | 9 | 149 | 1.6 | 1.6 | 0.00 | 0.00 | 0.00 | 68 | 1004.1 |
| 20260508071558 | 9 | 176 | 1.6 | 1.6 | 0.00 | 0.00 | 0.00 | 67 | 1004.3 |
| 20260508071056 | 10 | 153 | 1.6 | 3.2 | 0.00 | 0.00 | 0.00 | 67 | 1004.0 |
| 20260508070553 | 10 | 182 | 1.6 | 1.6 | 0.00 | 0.00 | 0.00 | 66 | 1004.2 |
| 20260508070051 | 10 | 148 | 0.0 | 0.0 | 0.00 | 0.00 | 0.00 | 65 | 1004.2 |
| 20260508065548 | 10 | 153 | 0.0 | 0.0 | 0.00 | 0.00 | 0.00 | 64 | 1004.5 |
| 20260508065046 | 10 | 126 | 0.0 | 0.0 | 0.00 | 0.00 | 0.00 | 64 | 1004.1 |
| 20260508064544 | 10 | 111 | 1.6 | 1.6 | 0.00 | 0.00 | 0.00 | 63 | 1003.9 |
| 20260508064041 | 10 | 143 | 0.0 | 0.0 | 0.00 | 0.00 | 0.00 | 62 | 1004.1 |
| 20260508063538 | 11 | 138 | 1.6 | 3.2 | 0.00 | 0.00 | 0.00 | 62 | 1004.0 |
| 20260508063037 | 11 | 116 | 0.0 | 1.6 | 0.00 | 0.00 | 0.00 | 61 | 1004.3 |
| 20260508062534 | 11 | 126 | 1.6 | 1.6 | 0.00 | 0.00 | 0.00 | 60 | 1004.7 |
| 20260508062030 | 11 | 52 | 3.2 | 3.2 | 0.00 | 0.00 | 0.00 | 60 | 1004.7 |
| 20260508061528 | 11 | 51 | 1.6 | 3.2 | 0.00 | 0.00 | 0.00 | 59 | 1005.2 |
| 20260508061025 | 11 | 2 | 6.4 | 6.4 | 0.00 | 0.00 | 0.00 | 59 | 1005.4 |
| 20260508060522 | 11 | 329 | 3.2 | 4.8 | 0.00 | 0.00 | 0.00 | 59 | 1004.7 |
| 20260508060019 | 11 | 149 | 0.0 | 0.0 | 0.00 | 0.03 | 0.03 | 59 | 1004.2 |
| 20260508055515 | 11 | 144 | 0.0 | 1.6 | 0.00 | 0.03 | 0.03 | 59 | 1003.7 |
| 20260508055012 | 11 | 137 | 0.0 | 0.0 | 0.00 | 0.03 | 0.03 | 59 | 1004.0 |
| 20260508054508 | 11 | 136 | 0.0 | 0.0 | 0.00 | 0.03 | 0.03 | 59 | 1003.7 |
| 20260508054005 | 11 | 102 | 3.2 | 3.2 | 0.00 | 0.03 | 0.03 | 58 | 1003.7 |
| 20260508053502 | 11 | 124 | 0.0 | 1.6 | 0.00 | 0.03 | 0.03 | 58 | 1003.9 |
| 20260508053000 | 11 | 138 | 0.0 | 0.0 | 0.00 | 0.03 | 0.03 | 58 | 1003.7 |
| 20260508052457 | 11 | 116 | 1.6 | 1.6 | 0.00 | 0.03 | 0.03 | 58 | 1003.7 |
| 20260508051954 | 11 | 136 | 1.6 | 1.6 | 0.00 | 0.03 | 0.03 | 57 | 1003.4 |
| 20260508051449 | 11 | 85 | 3.2 | 3.2 | 0.00 | 0.03 | 0.03 | 57 | 1003.7 |
| 20260508050945 | 11 | 121 | 1.6 | 1.6 | 0.00 | 0.03 | 0.03 | 57 | 1003.5 |
| 20260508050442 | 11 | 93 | 4.8 | 9.7 | 0.00 | 0.03 | 0.03 | 56 | 1003.6 |
| 20260508045939 | 12 | 110 | 1.6 | 3.2 | 0.00 | 0.03 | 0.03 | 57 | 1004.0 |
| 20260508045436 | 12 | 110 | 0.0 | 1.6 | 0.00 | 0.03 | 0.03 | 56 | 1004.2 |
| 20260508044933 | 12 | 34 | 3.2 | 9.7 | 0.00 | 0.03 | 0.03 | 56 | 1004.3 |
| 20260508044425 | 12 | 341 | 4.8 | 4.8 | 0.00 | 0.03 | 0.03 | 55 | 1004.3 |
| 20260508043925 | 12 | 309 | 6.4 | 6.4 | 0.00 | 0.03 | 0.03 | 55 | 1004.0 |
| 20260508043423 | 12 | 38 | 3.2 | 3.2 | 0.00 | 0.03 | 0.03 | 54 | 1003.6 |
| 20260508042919 | 12 | 131 | 0.0 | 0.0 | 0.00 | 0.03 | 0.03 | 54 | 1003.7 |
| 20260508042418 | 12 | 139 | 0.0 | 0.0 | 0.00 | 0.03 | 0.03 | 54 | 1003.3 |
| 20260508041914 | 12 | 131 | 3.2 | 3.2 | 0.00 | 0.03 | 0.03 | 53 | 1003.3 |
| 20260508041411 | 12 | 108 | 4.8 | 9.7 | 0.00 | 0.03 | 0.03 | 52 | 1003.0 |
| 20260508040907 | 12 | 104 | 3.2 | 6.4 | 0.00 | 0.03 | 0.03 | 51 | 1003.2 |
| 20260508040404 | 13 | 129 | 4.8 | 6.4 | 0.00 | 0.03 | 0.03 | 49 | 1003.5 |
| 20260508035902 | 13 | 35 | 3.2 | 4.8 | 0.00 | 0.03 | 0.03 | 47 | 1003.4 |
| 20260508035359 | 15 | 78 | 4.8 | 9.7 | 0.00 | 0.03 | 0.03 | 39 | 1003.4 |
| 20260508034856 | 15 | 112 | 1.6 | 1.6 | 0.00 | 0.03 | 0.03 | 38 | 1003.4 |
| 20260508034353 | 15 | 163 | 0.0 | 0.0 | 0.00 | 0.03 | 0.03 | 37 | 1003.0 |
| 20260508033850 | 15 | 175 | 0.0 | 0.0 | 0.00 | 0.03 | 0.03 | 38 | 1003.3 |
| 20260508033348 | 15 | 175 | 0.0 | 0.0 | 0.00 | 0.03 | 0.03 | 38 | 1003.4 |
| 20260508032845 | 15 | 191 | 0.0 | 0.0 | 0.00 | 0.03 | 0.03 | 38 | 1003.3 |
| 20260508032343 | 15 | 190 | 0.0 | 0.0 | 0.00 | 0.03 | 0.03 | 38 | 1003.2 |
| 20260508031839 | 15 | 228 | 1.6 | 1.6 | 0.00 | 0.03 | 0.03 | 38 | 1003.3 |
| 20260508031336 | 15 | 155 | 0.0 | 0.0 | 0.00 | 0.03 | 0.03 | 38 | 1003.2 |
| 20260508030832 | 15 | 133 | 1.6 | 1.6 | 0.00 | 0.03 | 0.03 | 38 | 1002.9 |
| 20260508030329 | 15 | 144 | 4.8 | 4.8 | 0.00 | 0.03 | 0.03 | 38 | 1002.8 |
| 20260508025826 | 15 | 144 | 0.0 | 1.6 | 0.00 | 0.03 | 0.03 | 38 | 1002.9 |
| 20260508025323 | 15 | 162 | 1.6 | 1.6 | 0.00 | 0.03 | 0.03 | 36 | 1002.9 |
| 20260508024820 | 15 | 184 | 1.6 | 1.6 | 0.00 | 0.03 | 0.03 | 36 | 1003.2 |
| 20260508024316 | 15 | 58 | 3.2 | 3.2 | 0.00 | 0.03 | 0.03 | 35 | 1003.0 |
| 20260508023813 | 15 | 130 | 0.0 | 0.0 | 0.00 | 0.03 | 0.03 | 36 | 1002.8 |
| 20260508023310 | 15 | 169 | 0.0 | 1.6 | 0.00 | 0.03 | 0.03 | 36 | 1002.7 |
| 20260508022807 | 16 | 46 | 3.2 | 6.4 | 0.00 | 0.03 | 0.03 | 35 | 1002.2 |
| 20260508022306 | 16 | 348 | 6.4 | 6.4 | 0.00 | 0.03 | 0.03 | 35 | 1002.2 |
| 20260508021800 | 16 | 116 | 4.8 | 4.8 | 0.00 | 0.03 | 0.03 | 33 | 1002.3 |
| 20260508021255 | 16 | 30 | 6.4 | 9.7 | 0.00 | 0.03 | 0.03 | 32 | 1002.6 |
| 20260508020752 | 16 | 62 | 6.4 | 6.4 | 0.00 | 0.03 | 0.03 | 32 | 1002.9 |
| 20260508020250 | 16 | 2 | 6.4 | 6.4 | 0.00 | 0.03 | 0.03 | 31 | 1002.8 |
| 20260508015746 | 17 | 310 | 6.4 | 9.7 | 0.00 | 0.03 | 0.03 | 31 | 1002.3 |
| 20260508015244 | 17 | 182 | 0.0 | 1.6 | 0.00 | 0.03 | 0.03 | 30 | 1002.2 |
| 20260508014741 | 17 | 191 | 22.5 | 25.7 | 0.00 | 0.03 | 0.03 | 29 | 1002.3 |
| 20260508014237 | 17 | 188 | 4.8 | 6.4 | 0.00 | 0.03 | 0.03 | 30 | 1002.1 |
| 20260508013733 | 17 | 254 | 4.8 | 6.4 | 0.00 | 0.03 | 0.03 | 28 | 1001.7 |
| 20260508013230 | 17 | 192 | 1.6 | 1.6 | 0.00 | 0.03 | 0.03 | 26 | 1001.5 |
| 20260508012728 | 18 | 172 | 0.0 | 0.0 | 0.00 | 0.03 | 0.03 | 26 | 1001.3 |
| 20260508012224 | 18 | 183 | 0.0 | 0.0 | 0.00 | 0.03 | 0.03 | 25 | 1001.1 |
| 20260508011722 | 18 | 177 | 1.6 | 1.6 | 0.00 | 0.03 | 0.03 | 25 | 1001.5 |
| 20260508011220 | 18 | 171 | 0.0 | 0.0 | 0.00 | 0.03 | 0.03 | 25 | 1001.3 |
| 20260508010716 | 18 | 177 | 0.0 | 1.6 | 0.00 | 0.03 | 0.03 | 25 | 1001.1 |
| 20260508010214 | 18 | 177 | 0.0 | 0.0 | 0.00 | 0.03 | 0.03 | 24 | 1001.1 |
| 20260508005711 | 18 | 190 | 0.0 | 1.6 | 0.00 | 0.03 | 0.03 | 24 | 1001.0 |
| 20260508005208 | 18 | 183 | 1.6 | 1.6 | 0.00 | 0.03 | 0.03 | 23 | 1001.1 |
| 20260508004703 | 18 | 190 | 1.6 | 1.6 | 0.00 | 0.03 | 0.03 | 24 | 1001.3 |
| 20260508004200 | 18 | 187 | 1.6 | 1.6 | 0.00 | 0.03 | 0.03 | 25 | 1001.1 |
| 20260508003657 | 18 | 240 | 3.2 | 3.2 | 0.00 | 0.03 | 0.03 | 23 | 1001.0 |
| 20260508003154 | 18 | 192 | 1.6 | 1.6 | 0.00 | 0.03 | 0.03 | 24 | 1001.1 |
| 20260508002650 | 18 | 188 | 1.6 | 3.2 | 0.00 | 0.03 | 0.03 | 24 | 1001.0 |
| 20260508002148 | 18 | 204 | 0.0 | 1.6 | 0.00 | 0.03 | 0.03 | 25 | 1000.9 |
| 20260508001643 | 18 | 250 | 3.2 | 3.2 | 0.00 | 0.03 | 0.03 | 24 | 1000.7 |
| 20260508001139 | 18 | 182 | 3.2 | 4.8 | 0.00 | 0.03 | 0.03 | 23 | 1000.8 |
| 20260508000635 | 19 | 180 | 1.6 | 1.6 | 0.00 | 0.03 | 0.03 | 23 | 1000.9 |
| 20260508000133 | 20 | 206 | 4.8 | 6.4 | 0.00 | 0.03 | 0.03 | 22 | 1000.9 |
| 20260507235630 | 20 | 223 | 3.2 | 4.8 | 0.00 | 0.03 | 0.03 | 22 | 1001.0 |
| 20260507235127 | 20 | 204 | 3.2 | 4.8 | 0.00 | 0.03 | 0.03 | 21 | 1000.9 |
| 20260507234623 | 21 | 234 | 6.4 | 6.4 | 0.00 | 0.03 | 0.03 | 22 | 1000.9 |
| 20260507234120 | 21 | 189 | 4.8 | 6.4 | 0.00 | 0.03 | 0.03 | 21 | 1001.1 |
| 20260507233617 | 21 | 225 | 0.0 | 1.6 | 0.00 | 0.03 | 0.03 | 21 | 1001.0 |
| 20260507233116 | 20 | 171 | 3.2 | 4.8 | 0.00 | 0.03 | 0.03 | 22 | 1001.3 |
| 20260507232612 | 21 | 37 | 1.6 | 1.6 | 0.00 | 0.03 | 0.03 | 21 | 1001.0 |
| 20260507232109 | 20 | 228 | 3.2 | 3.2 | 0.00 | 0.03 | 0.03 | 22 | 1001.0 |
| 20260507231605 | 21 | 217 | 3.2 | 4.8 | 0.00 | 0.03 | 0.03 | 21 | 1001.0 |
| 20260507231102 | 20 | 204 | 3.2 | 3.2 | 0.00 | 0.03 | 0.03 | 21 | 1001.1 |
| 20260507230559 | 20 | 201 | 3.2 | 6.4 | 0.00 | 0.03 | 0.03 | 22 | 1001.4 |
| 20260507230055 | 21 | 248 | 14.5 | 16.1 | 0.00 | 0.03 | 0.03 | 21 | 1001.3 |
| 20260507225550 | 20 | 282 | 8.0 | 11.3 | 0.00 | 0.03 | 0.03 | 21 | 1001.1 |
| 20260507225047 | 20 | 265 | 8.0 | 11.3 | 0.00 | 0.03 | 0.03 | 21 | 1001.1 |
| 20260507224543 | 21 | 266 | 8.0 | 14.5 | 0.00 | 0.03 | 0.03 | 21 | 1001.1 |
| 20260507224040 | 21 | 264 | 9.7 | 11.3 | 0.00 | 0.03 | 0.03 | 21 | 1001.3 |
| 20260507223536 | 20 | 346 | 3.2 | 4.8 | 0.00 | 0.03 | 0.03 | 20 | 1001.1 |
| 20260507223033 | 20 | 255 | 12.9 | 17.7 | 0.00 | 0.03 | 0.03 | 22 | 1001.5 |
| 20260507222530 | 19 | 257 | 3.2 | 4.8 | 0.00 | 0.03 | 0.03 | 23 | 1001.6 |
| 20260507222026 | 18 | 232 | 4.8 | 4.8 | 0.00 | 0.03 | 0.03 | 24 | 1001.5 |
| 20260507221523 | 18 | 244 | 4.8 | 6.4 | 0.00 | 0.03 | 0.03 | 23 | 1001.9 |
| 20260507221020 | 18 | 247 | 12.9 | 16.1 | 0.00 | 0.03 | 0.03 | 23 | 1001.6 |
| 20260507220517 | 19 | 242 | 12.9 | 17.7 | 0.00 | 0.03 | 0.03 | 23 | 1001.6 |
| 20260507220015 | 19 | 222 | 4.8 | 4.8 | 0.00 | 0.03 | 0.03 | 23 | 1001.7 |
| 20260507215510 | 18 | 292 | 9.7 | 12.9 | 0.00 | 0.03 | 0.03 | 24 | 1001.9 |
| 20260507215009 | 19 | 332 | 6.4 | 6.4 | 0.00 | 0.03 | 0.03 | 23 | 1002.0 |
| 20260507214505 | 19 | 330 | 4.8 | 11.3 | 0.00 | 0.03 | 0.03 | 23 | 1002.0 |
| 20260507214000 | 20 | 301 | 6.4 | 6.4 | 0.00 | 0.03 | 0.03 | 23 | 1002.1 |
| 20260507213458 | 20 | 271 | 11.3 | 14.5 | 0.00 | 0.03 | 0.03 | 22 | 1002.3 |
| 20260507212954 | 18 | 254 | 4.8 | 6.4 | 0.00 | 0.03 | 0.03 | 24 | 1002.1 |
| 20260507212450 | 18 | 253 | 14.5 | 17.7 | 0.00 | 0.03 | 0.03 | 24 | 1002.4 |
| 20260507211948 | 18 | 274 | 12.9 | 14.5 | 0.00 | 0.03 | 0.03 | 23 | 1002.2 |
| 20260507211444 | 18 | 333 | 11.3 | 14.5 | 0.00 | 0.03 | 0.03 | 23 | 1002.3 |
| 20260507210941 | 18 | 218 | 3.2 | 6.4 | 0.00 | 0.03 | 0.03 | 24 | 1002.6 |
| 20260507210438 | 20 | 321 | 9.7 | 12.9 | 0.00 | 0.03 | 0.03 | 23 | 1002.3 |
| 20260507205934 | 21 | 243 | 9.7 | 14.5 | 0.00 | 0.03 | 0.03 | 21 | 1002.6 |
| 20260507205432 | 21 | 296 | 3.2 | 4.8 | 0.00 | 0.03 | 0.03 | 23 | 1002.4 |
| 20260507204928 | 20 | 231 | 8.0 | 9.7 | 0.00 | 0.03 | 0.03 | 21 | 1002.7 |
| 20260507204424 | 21 | 286 | 16.1 | 22.5 | 0.00 | 0.03 | 0.03 | 22 | 1002.3 |
| 20260507203922 | 20 | 239 | 4.8 | 6.4 | 0.00 | 0.03 | 0.03 | 22 | 1002.4 |
| 20260507203420 | 20 | 75 | 4.8 | 6.4 | 0.00 | 0.03 | 0.03 | 23 | 1002.6 |
| 20260507202916 | 20 | 352 | 3.2 | 9.7 | 0.00 | 0.03 | 0.03 | 24 | 1002.7 |
| 20260507202413 | 20 | 19 | 8.0 | 16.1 | 0.00 | 0.03 | 0.03 | 24 | 1002.8 |
| 20260507201908 | 20 | 192 | 3.2 | 6.4 | 0.00 | 0.03 | 0.03 | 23 | 1002.9 |
| 20260507201403 | 20 | 266 | 11.3 | 20.9 | 0.00 | 0.03 | 0.03 | 23 | 1002.9 |
| 20260507200900 | 20 | 307 | 6.4 | 11.3 | 0.00 | 0.03 | 0.03 | 25 | 1003.3 |
| 20260507200356 | 19 | 156 | 9.7 | 12.9 | 0.00 | 0.03 | 0.03 | 26 | 1003.3 |
| 20260507195852 | 20 | 248 | 11.3 | 12.9 | 0.00 | 0.03 | 0.03 | 24 | 1003.4 |
| 20260507195350 | 20 | 198 | 6.4 | 9.7 | 0.00 | 0.03 | 0.03 | 25 | 1003.3 |
| 20260507194847 | 20 | 246 | 9.7 | 11.3 | 0.00 | 0.03 | 0.03 | 25 | 1003.4 |
| 20260507194343 | 19 | 221 | 16.1 | 17.7 | 0.00 | 0.03 | 0.03 | 25 | 1003.6 |
| 20260507193840 | 19 | 278 | 8.0 | 9.7 | 0.00 | 0.03 | 0.03 | 25 | 1003.6 |
| 20260507193337 | 18 | 215 | 8.0 | 11.3 | 0.00 | 0.03 | 0.03 | 27 | 1003.6 |
| 20260507192833 | 18 | 199 | 9.7 | 14.5 | 0.00 | 0.03 | 0.03 | 28 | 1003.7 |
| 20260507192324 | 18 | 230 | 3.2 | 4.8 | 0.00 | 0.03 | 0.03 | 30 | 1003.6 |
| 20260507191820 | 18 | 244 | 6.4 | 6.4 | 0.00 | 0.03 | 0.03 | 28 | 1003.6 |
| 20260507191317 | 18 | 238 | 12.9 | 14.5 | 0.00 | 0.03 | 0.03 | 29 | 1003.9 |
| 20260507190814 | 17 | 202 | 6.4 | 6.4 | 0.00 | 0.03 | 0.03 | 29 | 1003.7 |
| 20260507190312 | 18 | 232 | 6.4 | 9.7 | 0.00 | 0.03 | 0.03 | 30 | 1003.7 |
| 20260507185810 | 17 | 198 | 9.7 | 12.9 | 0.00 | 0.03 | 0.03 | 28 | 1003.6 |
| 20260507185307 | 17 | 186 | 8.0 | 9.7 | 0.00 | 0.03 | 0.03 | 29 | 1003.7 |
| 20260507184804 | 17 | 147 | 9.7 | 11.3 | 0.00 | 0.03 | 0.03 | 29 | 1004.0 |
| 20260507184302 | 17 | 233 | 3.2 | 4.8 | 0.00 | 0.03 | 0.03 | 30 | 1003.9 |
| 20260507183758 | 18 | 158 | 4.8 | 4.8 | 0.00 | 0.03 | 0.03 | 28 | 1004.0 |
| 20260507183255 | 18 | 239 | 8.0 | 9.7 | 0.00 | 0.03 | 0.03 | 28 | 1004.0 |
| 20260507182753 | 18 | 208 | 4.8 | 4.8 | 0.00 | 0.03 | 0.03 | 31 | 1004.0 |
| 20260507182248 | 17 | 163 | 8.0 | 9.7 | 0.00 | 0.03 | 0.03 | 29 | 1004.1 |
| 20260507181745 | 16 | 190 | 6.4 | 9.7 | 0.00 | 0.03 | 0.03 | 32 | 1004.3 |
| 20260507181241 | 16 | 241 | 6.4 | 9.7 | 0.00 | 0.03 | 0.03 | 31 | 1004.3 |
| 20260507180738 | 17 | 203 | 9.7 | 14.5 | 0.00 | 0.03 | 0.03 | 30 | 1004.3 |
| 20260507180235 | 16 | 147 | 3.2 | 4.8 | 0.00 | 0.03 | 0.03 | 35 | 1004.1 |
| 20260507175730 | 16 | 193 | 9.7 | 12.9 | 0.00 | 0.03 | 0.03 | 35 | 1004.2 |
| 20260507175227 | 16 | 191 | 6.4 | 9.7 | 0.00 | 0.03 | 0.03 | 32 | 1004.3 |
| 20260507174725 | 16 | 161 | 3.2 | 4.8 | 0.00 | 0.03 | 0.03 | 33 | 1004.3 |
| 20260507174223 | 16 | 193 | 9.7 | 14.5 | 0.00 | 0.03 | 0.03 | 33 | 1004.3 |
| 20260507173720 | 16 | 241 | 8.0 | 11.3 | 0.00 | 0.03 | 0.03 | 32 | 1004.6 |
| 20260507173217 | 16 | 228 | 4.8 | 6.4 | 0.00 | 0.03 | 0.03 | 34 | 1004.2 |
| 20260507172714 | 16 | 178 | 3.2 | 3.2 | 0.00 | 0.03 | 0.03 | 33 | 1004.5 |
| 20260507172210 | 16 | 130 | 4.8 | 4.8 | 0.00 | 0.03 | 0.03 | 35 | 1004.3 |
| 20260507171705 | 15 | 168 | 3.2 | 4.8 | 0.00 | 0.03 | 0.03 | 35 | 1004.5 |
| 20260507171203 | 15 | 197 | 6.4 | 9.7 | 0.00 | 0.03 | 0.03 | 35 | 1004.9 |
| 20260507170659 | 15 | 197 | 8.0 | 11.3 | 0.00 | 0.03 | 0.03 | 34 | 1004.6 |
| 20260507170156 | 15 | 167 | 8.0 | 14.5 | 0.00 | 0.03 | 0.03 | 35 | 1004.7 |
| 20260507165651 | 15 | 205 | 11.3 | 16.1 | 0.00 | 0.03 | 0.03 | 34 | 1004.8 |
| 20260507165148 | 15 | 177 | 8.0 | 11.3 | 0.00 | 0.03 | 0.03 | 34 | 1004.8 |
| 20260507164644 | 15 | 192 | 8.0 | 11.3 | 0.00 | 0.03 | 0.03 | 34 | 1005.0 |
| 20260507164141 | 15 | 172 | 6.4 | 6.4 | 0.00 | 0.03 | 0.03 | 36 | 1004.8 |
| 20260507163638 | 14 | 156 | 8.0 | 11.3 | 0.00 | 0.03 | 0.03 | 36 | 1005.2 |
| 20260507163137 | 15 | 195 | 4.8 | 6.4 | 0.00 | 0.03 | 0.03 | 37 | 1004.9 |
| 20260507162632 | 14 | 218 | 4.8 | 4.8 | 0.00 | 0.03 | 0.03 | 37 | 1005.0 |
| 20260507162128 | 14 | 219 | 4.8 | 6.4 | 0.00 | 0.03 | 0.03 | 36 | 1005.4 |
| 20260507161624 | 13 | 162 | 6.4 | 6.4 | 0.00 | 0.03 | 0.03 | 37 | 1005.0 |
| 20260507161121 | 13 | 154 | 8.0 | 9.7 | 0.00 | 0.03 | 0.03 | 37 | 1005.2 |
| 20260507160617 | 13 | 156 | 6.4 | 9.7 | 0.00 | 0.03 | 0.03 | 37 | 1005.0 |
| 20260507160114 | 13 | 160 | 8.0 | 11.3 | 0.00 | 0.03 | 0.03 | 37 | 1005.2 |
| 20260507155609 | 13 | 199 | 6.4 | 9.7 | 0.00 | 0.03 | 0.03 | 36 | 1005.2 |
| 20260507155106 | 13 | 164 | 4.8 | 6.4 | 0.00 | 0.03 | 0.03 | 37 | 1005.2 |
| 20260507154603 | 12 | 146 | 6.4 | 9.7 | 0.00 | 0.03 | 0.03 | 37 | 1005.4 |
| 20260507154100 | 12 | 195 | 6.4 | 6.4 | 0.00 | 0.03 | 0.03 | 36 | 1005.5 |
| 20260507153557 | 12 | 153 | 9.7 | 11.3 | 0.00 | 0.03 | 0.03 | 37 | 1005.4 |
| 20260507153053 | 12 | 136 | 8.0 | 12.9 | 0.00 | 0.03 | 0.03 | 37 | 1005.2 |
| 20260507152549 | 12 | 172 | 6.4 | 6.4 | 0.00 | 0.03 | 0.03 | 36 | 1005.3 |
| 20260507152046 | 12 | 172 | 8.0 | 11.3 | 0.00 | 0.03 | 0.03 | 36 | 1005.3 |
| 20260507151542 | 12 | 122 | 8.0 | 9.7 | 0.00 | 0.03 | 0.03 | 37 | 1005.6 |
| 20260507151039 | 11 | 155 | 9.7 | 12.9 | 0.00 | 0.03 | 0.03 | 37 | 1005.4 |
| 20260507150536 | 11 | 160 | 3.2 | 4.8 | 0.00 | 0.03 | 0.03 | 38 | 1005.4 |
| 20260507150033 | 11 | 138 | 3.2 | 4.8 | 0.00 | 0.03 | 0.03 | 38 | 1005.5 |
| 20260507145527 | 11 | 157 | 6.4 | 9.7 | 0.00 | 0.03 | 0.03 | 38 | 1005.4 |
| 20260507145026 | 10 | 187 | 6.4 | 6.4 | 0.00 | 0.03 | 0.03 | 39 | 1005.4 |
| 20260507144522 | 10 | 149 | 9.7 | 11.3 | 0.00 | 0.03 | 0.03 | 38 | 1005.3 |
| 20260507144020 | 10 | 141 | 4.8 | 6.4 | 0.00 | 0.03 | 0.03 | 39 | 1005.5 |
| 20260507143517 | 10 | 176 | 6.4 | 6.4 | 0.00 | 0.03 | 0.03 | 39 | 1005.6 |
| 20260507143014 | 10 | 167 | 3.2 | 4.8 | 0.00 | 0.03 | 0.03 | 40 | 1005.5 |
| 20260507142509 | 9 | 138 | 8.0 | 9.7 | 0.00 | 0.03 | 0.03 | 40 | 1005.3 |
| 20260507142007 | 9 | 170 | 6.4 | 9.7 | 0.00 | 0.03 | 0.03 | 41 | 1005.0 |
| 20260507141502 | 8 | 156 | 3.2 | 4.8 | 0.13 | 0.03 | 0.03 | 41 | 1005.3 |
| 20260507140959 | 8 | 213 | 6.4 | 9.7 | 0.13 | 0.03 | 0.03 | 41 | 1005.5 |
| 20260507140456 | 8 | 129 | 3.2 | 4.8 | 0.00 | 0.00 | 0.00 | 42 | 1005.3 |
| 20260507135953 | 8 | 203 | 6.4 | 9.7 | 0.00 | 0.00 | 0.00 | 42 | 1005.4 |
| 20260507135450 | 8 | 231 | 9.7 | 12.9 | 0.00 | 0.00 | 0.00 | 43 | 1005.6 |
| 20260507134947 | 7 | 155 | 6.4 | 6.4 | 0.00 | 0.00 | 0.00 | 43 | 1005.3 |
| 20260507134444 | 7 | 194 | 6.4 | 9.7 | 0.00 | 0.00 | 0.00 | 43 | 1005.4 |
| 20260507133940 | 7 | 126 | 6.4 | 9.7 | 0.00 | 0.00 | 0.00 | 44 | 1005.5 |
| 20260507133436 | 7 | 183 | 4.8 | 6.4 | 0.00 | 0.00 | 0.00 | 44 | 1005.2 |
| 20260507132935 | 7 | 185 | 9.7 | 12.9 | 0.00 | 0.00 | 0.00 | 44 | 1005.3 |
| 20260507132430 | 6 | 187 | 4.8 | 6.4 | 0.00 | 0.00 | 0.00 | 46 | 1005.4 |
| 20260507131927 | 6 | 172 | 9.7 | 11.3 | 0.00 | 0.00 | 0.00 | 46 | 1005.6 |
| 20260507131424 | 6 | 201 | 6.4 | 6.4 | 0.00 | 0.00 | 0.00 | 46 | 1005.3 |
| 20260507130921 | 5 | 140 | 3.2 | 4.8 | 0.00 | 0.00 | 0.00 | 47 | 1005.4 |
| 20260507130418 | 5 | 183 | 3.2 | 3.2 | 0.00 | 0.00 | 0.00 | 47 | 1005.3 |
| 20260507125917 | 5 | 182 | 1.6 | 1.6 | 0.00 | 0.00 | 0.00 | 48 | 1005.3 |
| 20260507125414 | 5 | 193 | 9.7 | 11.3 | 0.00 | 0.00 | 0.00 | 47 | 1005.0 |
| 20260507124912 | 5 | 174 | 4.8 | 6.4 | 0.00 | 0.00 | 0.00 | 48 | 1005.2 |
| 20260507124407 | 5 | 171 | 3.2 | 4.8 | 0.00 | 0.00 | 0.00 | 47 | 1005.2 |
| 20260507123906 | 5 | 173 | 8.0 | 11.3 | 0.00 | 0.00 | 0.00 | 47 | 1004.8 |
| 20260507123403 | 5 | 154 | 1.6 | 3.2 | 0.00 | 0.00 | 0.00 | 48 | 1004.9 |
| 20260507122859 | 5 | 184 | 6.4 | 9.7 | 0.00 | 0.00 | 0.00 | 47 | 1004.9 |
| 20260507122355 | 4 | 176 | 6.4 | 6.4 | 0.00 | 0.00 | 0.00 | 48 | 1004.9 |
| 20260507121851 | 4 | 148 | 6.4 | 9.7 | 0.00 | 0.00 | 0.00 | 49 | 1004.9 |
| 20260507121346 | 4 | 159 | 1.6 | 3.2 | 0.00 | 0.00 | 0.00 | 49 | 1004.8 |
| 20260507120843 | 3 | 165 | 1.6 | 1.6 | 0.00 | 0.00 | 0.00 | 49 | 1004.9 |
| 20260507120340 | 3 | 169 | 4.8 | 6.4 | 0.00 | 0.00 | 0.00 | 50 | 1004.8 |
| 20260507115836 | 3 | 155 | 6.4 | 9.7 | 0.00 | 0.00 | 0.00 | 49 | 1004.8 |
| 20260507115332 | 3 | 159 | 6.4 | 6.4 | 0.00 | 0.00 | 0.00 | 49 | 1004.9 |
| 20260507114828 | 3 | 148 | 3.2 | 3.2 | 0.00 | 0.00 | 0.00 | 49 | 1004.7 |
| 20260507114325 | 3 | 173 | 6.4 | 9.7 | 0.00 | 0.00 | 0.00 | 50 | 1004.7 |
| 20260507113823 | 3 | 127 | 3.2 | 4.8 | 0.00 | 0.00 | 0.00 | 49 | 1004.7 |
| 20260507113319 | 3 | 178 | 4.8 | 4.8 | 0.00 | 0.00 | 0.00 | 49 | 1004.8 |
| 20260507112817 | 3 | 174 | 4.8 | 4.8 | 0.00 | 0.00 | 0.00 | 49 | 1004.7 |
| 20260507112314 | 3 | 186 | 3.2 | 3.2 | 0.00 | 0.00 | 0.00 | 50 | 1004.3 |
| 20260507111812 | 3 | 172 | 8.0 | 11.3 | 0.00 | 0.00 | 0.00 | 49 | 1004.8 |
| 20260507111308 | 3 | 184 | 4.8 | 4.8 | 0.00 | 0.00 | 0.00 | 50 | 1004.6 |
| 20260507110804 | 3 | 155 | 3.2 | 4.8 | 0.00 | 0.00 | 0.00 | 51 | 1004.7 |
| 20260507110300 | 3 | 159 | 4.8 | 6.4 | 0.00 | 0.00 | 0.00 | 52 | 1004.7 |
| 20260507105758 | 3 | 156 | 3.2 | 4.8 | 0.00 | 0.00 | 0.00 | 53 | 1004.6 |
| 20260507105254 | 3 | 182 | 4.8 | 4.8 | 0.00 | 0.00 | 0.00 | 53 | 1004.8 |